Tracking 22879 objects as of 21-Apr-2021
HD Live streaming from Space Station
objects crossing your sky now

STARLINK-2159

Track STARLINK-2159 now!
10-day predictions
STARLINK-2159 is classified as:


NORAD ID: 47745
Int'l Code: 2021-017Z
Perigee: 356.1 km
Apogee: 357.6 km
Inclination: 53.0 °
Period: 91.5 minutes
Semi major axis: 6727 km
RCS: Unknown
Launch date: March 4, 2021
Source: United States (US)
Launch site: AIR FORCE EASTERN TEST RANGE (AFETR)
aabbcc
Your satellite tracking list
Your tracking list is empty




NASA's NSSDC Master Catalog

Two Line Element Set (TLE):
1 47745U 21017Z   21110.91667824  .00013944  00000-0  10357-3 0  9996
2 47745  53.0474 307.5283 0001135  89.1642  21.4831 15.73204278  8129
Source of the keplerian elements: AFSPC